Location: Clarion
(42.7316°N, 93.7330°W)
Time: 09:21:23
(UTC+00:00)

Cosmos 1869 - Pass Details

Date: 22 April 2026
Orbit: 443 x 468 km, 82.5° (Epoch: 16 May)

Event Time Altitude Azimuth Distance (km) Brightness Sun altitude
Exits shadow 02:54:41 49° 83° (E) 614 3.2 -18.7°
Drops below altitude 10° 02:57:59 10° 19° (NNE) 1,638 6.0 -19.2°
Sets 03:00:07 0° 14° (NNE) 2,522 7.0 -19.5°
